DOC258 LPLA-LPMA

Flight info

Callsign DOC258
Flight time 2h 5m
Altitude 27000
Route MIPRU DCT ETROX DCT 35N020W DCT IRKID/N0309F270 DCT IBBAN
Aircraft B350/L-SDFGHIRWXY/SB1

Departure

Time 2026-04-20 12:38
Airport Lajes Airport (LPLA)

Arrival

Time 2026-04-20 14:43
Airport Cristiano Ronaldo International Airport (LPMA)
Time Latitude Longitude Altitude Speed Heading
2026-04-20 12:37 38.75971 -27.08858 178 ft 0 kts 321°
2026-04-20 12:37 38.75982 -27.08869 178 ft 20 kts 321°
2026-04-20 12:38 38.76320 -27.09222 174 ft 97 kts 321°
2026-04-20 12:38 38.76950 -27.09850 351 ft 131 kts 325°
2026-04-20 12:38 38.77701 -27.10573 944 ft 137 kts 326°
2026-04-20 12:38 38.78436 -27.11367 1615 ft 138 kts 323°
2026-04-20 12:39 38.80178 -27.12087 2494 ft 160 kts 35°
2026-04-20 12:39 38.80573 -27.11248 2811 ft 176 kts 73°
2026-04-20 12:39 38.80484 -27.10197 3242 ft 187 kts 109°
2026-04-20 12:40 38.78827 -27.08303 4236 ft 197 kts 143°
2026-04-20 12:40 38.77675 -27.07326 4835 ft 199 kts 145°
2026-04-20 12:40 38.76485 -27.06388 5421 ft 202 kts 154°
2026-04-20 12:40 38.75173 -27.05699 5977 ft 205 kts 154°
2026-04-20 12:41 38.74065 -27.04609 6537 ft 204 kts 135°
2026-04-20 12:41 38.73012 -27.03376 7079 ft 206 kts 133°
2026-04-20 12:41 38.72327 -27.02517 7428 ft 208 kts 131°
2026-04-20 12:41 38.71658 -27.01623 7768 ft 210 kts 129°
2026-04-20 12:42 38.70003 -26.99273 8624 ft 216 kts 127°
2026-04-20 12:42 38.69009 -26.97810 9155 ft 220 kts 126°
2026-04-20 12:42 38.68001 -26.96318 9701 ft 223 kts 126°
2026-04-20 12:42 38.66977 -26.94797 10229 ft 226 kts 126°
2026-04-20 12:43 38.65944 -26.93263 10725 ft 228 kts 126°
2026-04-20 12:43 38.65255 -26.92240 11040 ft 230 kts 126°
2026-04-20 12:43 38.63851 -26.90155 11727 ft 232 kts 127°
2026-04-20 12:43 38.62800 -26.88603 12220 ft 235 kts 128°
2026-04-20 12:44 38.61677 -26.87067 12724 ft 238 kts 131°
2026-04-20 12:44 38.60522 -26.85537 13238 ft 240 kts 131°
2026-04-20 12:44 38.59356 -26.83992 13758 ft 242 kts 131°
2026-04-20 12:44 38.58183 -26.82428 14233 ft 245 kts 132°
2026-04-20 12:45 38.57002 -26.80849 14678 ft 247 kts 132°
2026-04-20 12:45 38.55806 -26.79246 15128 ft 250 kts 132°
2026-04-20 12:45 38.54616 -26.77645 15570 ft 252 kts 132°
2026-04-20 12:45 38.53399 -26.76010 16044 ft 255 kts 133°
2026-04-20 12:46 38.52171 -26.74367 16514 ft 257 kts 133°
2026-04-20 12:46 38.50927 -26.72702 16973 ft 260 kts 133°
2026-04-20 12:46 38.49672 -26.71024 17446 ft 262 kts 134°
2026-04-20 12:46 38.48409 -26.69334 17908 ft 265 kts 134°
2026-04-20 12:47 38.47143 -26.67640 18356 ft 267 kts 134°
2026-04-20 12:47 38.45850 -26.65911 18763 ft 270 kts 134°
2026-04-20 12:47 38.44544 -26.64166 19162 ft 272 kts 134°
2026-04-20 12:47 38.43232 -26.62415 19553 ft 274 kts 134°
2026-04-20 12:48 38.41903 -26.60641 19941 ft 277 kts 133°
2026-04-20 12:48 38.40582 -26.58877 20315 ft 279 kts 133°
2026-04-20 12:48 38.39234 -26.57079 20685 ft 281 kts 133°
2026-04-20 12:48 38.37874 -26.55264 21057 ft 283 kts 133°
2026-04-20 12:49 38.36505 -26.53439 21435 ft 286 kts 133°
2026-04-20 12:49 38.35127 -26.51604 21807 ft 288 kts 133°
2026-04-20 12:49 38.33736 -26.49753 22182 ft 290 kts 132°
2026-04-20 12:49 38.32331 -26.47885 22551 ft 292 kts 132°
2026-04-20 12:50 38.30935 -26.46029 22903 ft 294 kts 132°
2026-04-20 12:50 38.29514 -26.44141 23251 ft 296 kts 132°
2026-04-20 12:50 38.28077 -26.42234 23597 ft 298 kts 132°
2026-04-20 12:50 38.26639 -26.40328 23962 ft 297 kts 132°
2026-04-20 12:51 38.25229 -26.38460 24296 ft 296 kts 131°
2026-04-20 12:51 38.23801 -26.36567 24650 ft 295 kts 131°
2026-04-20 12:51 38.22380 -26.34685 25003 ft 294 kts 131°
2026-04-20 12:51 38.20962 -26.32807 25358 ft 293 kts 131°
2026-04-20 12:52 38.19569 -26.30965 25723 ft 292 kts 131°
2026-04-20 12:52 38.18161 -26.29102 26088 ft 290 kts 131°
2026-04-20 12:52 38.16764 -26.27255 26460 ft 289 kts 131°
2026-04-20 12:52 38.15367 -26.25409 26811 ft 289 kts 131°
2026-04-20 12:53 38.13973 -26.23568 27018 ft 296 kts 131°
2026-04-20 12:53 38.12524 -26.21658 27139 ft 305 kts 131°
2026-04-20 12:53 38.11535 -26.20354 27151 ft 313 kts 131°
2026-04-20 12:53 38.09466 -26.17632 27161 ft 327 kts 132°
2026-04-20 12:54 38.07862 -26.15528 27164 ft 335 kts 132°
2026-04-20 12:54 38.06240 -26.13400 27161 ft 342 kts 132°
2026-04-20 12:54 38.04572 -26.11213 27161 ft 347 kts 132°
2026-04-20 12:54 38.02876 -26.08990 27163 ft 351 kts 132°
2026-04-20 12:55 38.01749 -26.07514 27158 ft 354 kts 132°
2026-04-20 12:55 37.99448 -26.04500 27159 ft 356 kts 132°
2026-04-20 12:55 37.97716 -26.02232 27159 ft 358 kts 133°
2026-04-20 12:55 37.95978 -25.99956 27154 ft 359 kts 133°
2026-04-20 12:56 37.94259 -25.97706 27151 ft 360 kts 133°
2026-04-20 12:56 37.92505 -25.95412 27149 ft 361 kts 133°
2026-04-20 12:56 37.90754 -25.93123 27146 ft 362 kts 133°
2026-04-20 12:56 37.88998 -25.90829 27142 ft 362 kts 133°
2026-04-20 12:57 37.87260 -25.88560 27140 ft 363 kts 133°
2026-04-20 12:57 37.85498 -25.86263 27137 ft 363 kts 133°
2026-04-20 12:57 37.83734 -25.83965 27140 ft 363 kts 133°
2026-04-20 12:57 37.81970 -25.81669 27135 ft 364 kts 133°
2026-04-20 12:58 37.80225 -25.79399 27132 ft 364 kts 133°
2026-04-20 12:58 37.78453 -25.77095 27132 ft 364 kts 133°
2026-04-20 12:58 37.76685 -25.74797 27127 ft 363 kts 133°
2026-04-20 12:58 37.75512 -25.73273 27135 ft 363 kts 133°
2026-04-20 12:59 37.73165 -25.70229 27134 ft 364 kts 133°
2026-04-20 12:59 37.71395 -25.67937 27132 ft 364 kts 133°
2026-04-20 12:59 37.69626 -25.65647 27133 ft 363 kts 133°
2026-04-20 12:59 37.67880 -25.63388 27127 ft 363 kts 133°
2026-04-20 13:00 37.66683 -25.61839 27131 ft 363 kts 133°
2026-04-20 13:00 37.64342 -25.58813 27133 ft 363 kts 133°
2026-04-20 13:00 37.62577 -25.56534 27133 ft 363 kts 133°
2026-04-20 13:00 37.60813 -25.54257 27132 ft 362 kts 134°
2026-04-20 13:01 37.59648 -25.52755 27134 ft 362 kts 134°
2026-04-20 13:01 37.57286 -25.49711 27133 ft 362 kts 134°
2026-04-20 13:01 37.55541 -25.47464 27132 ft 362 kts 134°
2026-04-20 13:01 37.53781 -25.45199 27132 ft 362 kts 134°
2026-04-20 13:02 37.52016 -25.42930 27126 ft 362 kts 134°
2026-04-20 13:02 37.50254 -25.40665 27129 ft 362 kts 134°
2026-04-20 13:02 37.48489 -25.38399 27120 ft 361 kts 134°
2026-04-20 13:02 37.46748 -25.36165 27124 ft 361 kts 134°
2026-04-20 13:03 37.44983 -25.33903 27122 ft 361 kts 134°
2026-04-20 13:03 37.43219 -25.31643 27124 ft 361 kts 134°
2026-04-20 13:03 37.41457 -25.29388 27129 ft 361 kts 134°
2026-04-20 13:03 37.39695 -25.27134 27123 ft 361 kts 134°
2026-04-20 13:04 37.38532 -25.25647 27120 ft 361 kts 134°
2026-04-20 13:04 37.36172 -25.22631 27118 ft 361 kts 134°
2026-04-20 13:04 37.34430 -25.20407 27121 ft 361 kts 134°
2026-04-20 13:04 37.32661 -25.18150 27120 ft 361 kts 134°
2026-04-20 13:05 37.30897 -25.15902 27115 ft 360 kts 134°
2026-04-20 13:05 37.29133 -25.13655 27116 ft 360 kts 134°
2026-04-20 13:05 37.27395 -25.11443 27113 ft 360 kts 135°
2026-04-20 13:05 37.25631 -25.09199 27112 ft 360 kts 135°
2026-04-20 13:06 37.23867 -25.06957 27109 ft 360 kts 135°
2026-04-20 13:06 37.22699 -25.05473 27109 ft 360 kts 135°
2026-04-20 13:06 37.20336 -25.02472 27107 ft 360 kts 135°
2026-04-20 13:06 37.18600 -25.00270 27103 ft 360 kts 135°
2026-04-20 13:07 37.16838 -24.98037 27102 ft 360 kts 135°
2026-04-20 13:07 37.15074 -24.95803 27090 ft 360 kts 135°
2026-04-20 13:07 37.13903 -24.94321 27092 ft 360 kts 135°
2026-04-20 13:07 37.11546 -24.91339 27095 ft 359 kts 135°
2026-04-20 13:08 37.09787 -24.89116 27091 ft 359 kts 135°
2026-04-20 13:08 37.08616 -24.87637 27091 ft 359 kts 135°
2026-04-20 13:08 37.06858 -24.85417 27090 ft 359 kts 135°
2026-04-20 13:08 37.04521 -24.82468 27090 ft 359 kts 135°
2026-04-20 13:09 37.02757 -24.80244 27090 ft 359 kts 135°
2026-04-20 13:09 37.00998 -24.78028 27089 ft 358 kts 135°
2026-04-20 13:09 36.99829 -24.76556 27087 ft 358 kts 135°
2026-04-20 13:09 36.97498 -24.73626 27088 ft 358 kts 135°
2026-04-20 13:10 36.95732 -24.71406 27087 ft 358 kts 135°
2026-04-20 13:10 36.93975 -24.69198 27087 ft 358 kts 135°
2026-04-20 13:10 36.92807 -24.67732 27086 ft 358 kts 135°
2026-04-20 13:10 36.90477 -24.64809 27080 ft 357 kts 135°
2026-04-20 13:11 36.88724 -24.62612 27081 ft 357 kts 135°
2026-04-20 13:11 36.86970 -24.60415 27080 ft 357 kts 135°
2026-04-20 13:11 36.85807 -24.58959 27086 ft 357 kts 135°
2026-04-20 13:11 36.84647 -24.57508 27073 ft 356 kts 135°
2026-04-20 13:12 36.81708 -24.53833 27074 ft 356 kts 135°
2026-04-20 13:12 36.79976 -24.51670 27079 ft 356 kts 135°
2026-04-20 13:12 36.78816 -24.50221 27072 ft 355 kts 135°
2026-04-20 13:12 36.76472 -24.47296 27070 ft 355 kts 135°
2026-04-20 13:13 36.74743 -24.45141 27081 ft 355 kts 135°
2026-04-20 13:13 36.72997 -24.42965 27073 ft 354 kts 135°
2026-04-20 13:13 36.71255 -24.40797 27066 ft 354 kts 135°
2026-04-20 13:13 36.69508 -24.38624 27070 ft 354 kts 135°
2026-04-20 13:14 36.67765 -24.36457 27068 ft 354 kts 135°
2026-04-20 13:14 36.66023 -24.34293 27066 ft 353 kts 136°
2026-04-20 13:14 36.64274 -24.32121 27065 ft 353 kts 136°
2026-04-20 13:14 36.63117 -24.30685 27058 ft 353 kts 136°
2026-04-20 13:15 36.60809 -24.27824 27070 ft 353 kts 136°
2026-04-20 13:15 36.59658 -24.26398 27056 ft 352 kts 136°
2026-04-20 13:15 36.57332 -24.23518 27053 ft 352 kts 136°
2026-04-20 13:15 36.55595 -24.21368 27063 ft 352 kts 136°
2026-04-20 13:16 36.53859 -24.19221 27055 ft 352 kts 136°
2026-04-20 13:16 36.52124 -24.17077 27052 ft 351 kts 136°
2026-04-20 13:16 36.50976 -24.15659 27055 ft 351 kts 136°
2026-04-20 13:16 36.48653 -24.12792 27048 ft 351 kts 136°
2026-04-20 13:17 36.47503 -24.11375 27052 ft 351 kts 136°
2026-04-20 13:17 36.45200 -24.08537 27047 ft 350 kts 136°
2026-04-20 13:17 36.43471 -24.06407 27044 ft 350 kts 136°
2026-04-20 13:17 36.42318 -24.04986 27045 ft 350 kts 135°
2026-04-20 13:18 36.40740 -24.02680 27047 ft 350 kts 124°
2026-04-20 13:18 36.39189 -23.99189 27043 ft 347 kts 110°
2026-04-20 13:18 36.38578 -23.97318 27044 ft 347 kts 110°
2026-04-20 13:18 36.37375 -23.93638 27039 ft 347 kts 110°
2026-04-20 13:19 36.36771 -23.91794 27038 ft 347 kts 110°
2026-04-20 13:19 36.35861 -23.89015 27034 ft 347 kts 110°
2026-04-20 13:19 36.34950 -23.86234 27042 ft 347 kts 110°
2026-04-20 13:19 36.34053 -23.83494 27043 ft 347 kts 110°
2026-04-20 13:20 36.33140 -23.80710 27032 ft 347 kts 110°
2026-04-20 13:20 36.31936 -23.77043 27037 ft 347 kts 110°
2026-04-20 13:20 36.31023 -23.74268 27031 ft 347 kts 110°
2026-04-20 13:20 36.30110 -23.71492 27027 ft 347 kts 110°
2026-04-20 13:21 36.29195 -23.68713 27024 ft 347 kts 110°
2026-04-20 13:21 36.28291 -23.65972 27028 ft 347 kts 110°
2026-04-20 13:21 36.27675 -23.64103 27029 ft 347 kts 110°
2026-04-20 13:21 36.26465 -23.60440 27029 ft 347 kts 110°
2026-04-20 13:22 36.25551 -23.57676 27028 ft 347 kts 111°
2026-04-20 13:22 36.24634 -23.54905 27021 ft 347 kts 111°
2026-04-20 13:22 36.24024 -23.53062 27027 ft 347 kts 111°
2026-04-20 13:22 36.22793 -23.49351 27024 ft 347 kts 111°
2026-04-20 13:23 36.21884 -23.46612 27017 ft 347 kts 111°
2026-04-20 13:23 36.20965 -23.43844 27016 ft 348 kts 111°
2026-04-20 13:23 36.20041 -23.41068 27009 ft 348 kts 111°
2026-04-20 13:23 36.19118 -23.38294 27007 ft 348 kts 111°
2026-04-20 13:24 36.18507 -23.36458 27009 ft 347 kts 111°
2026-04-20 13:24 36.17285 -23.32793 27002 ft 347 kts 111°
2026-04-20 13:24 36.16365 -23.30033 27009 ft 347 kts 111°
2026-04-20 13:24 36.15441 -23.27266 27005 ft 347 kts 111°
2026-04-20 13:25 36.14827 -23.25430 27000 ft 347 kts 111°
2026-04-20 13:25 36.13901 -23.22662 27005 ft 347 kts 111°
2026-04-20 13:25 36.12979 -23.19908 26993 ft 347 kts 111°
2026-04-20 13:25 36.12053 -23.17148 26998 ft 346 kts 111°
2026-04-20 13:26 36.10831 -23.13503 27001 ft 346 kts 111°
2026-04-20 13:26 36.09908 -23.10749 27002 ft 347 kts 112°
2026-04-20 13:26 36.09284 -23.08892 26996 ft 347 kts 112°
2026-04-20 13:26 36.08355 -23.06131 26996 ft 347 kts 112°
2026-04-20 13:27 36.07437 -23.03407 26987 ft 347 kts 112°
2026-04-20 13:27 36.06507 -23.00653 26988 ft 347 kts 112°
2026-04-20 13:27 36.05576 -22.97902 26987 ft 347 kts 112°
2026-04-20 13:27 36.04646 -22.95149 26991 ft 346 kts 112°
2026-04-20 13:28 36.03716 -22.92396 26981 ft 346 kts 112°
2026-04-20 13:28 36.02789 -22.89653 26989 ft 346 kts 112°
2026-04-20 13:28 36.01869 -22.86934 26976 ft 347 kts 112°
2026-04-20 13:28 36.00938 -22.84185 26983 ft 347 kts 112°
2026-04-20 13:29 36.00005 -22.81434 26983 ft 346 kts 112°
2026-04-20 13:29 35.99073 -22.78688 26971 ft 346 kts 112°
2026-04-20 13:29 35.98141 -22.75945 26971 ft 346 kts 112°
2026-04-20 13:29 35.97209 -22.73203 26980 ft 346 kts 112°
2026-04-20 13:30 35.96273 -22.70454 26971 ft 346 kts 112°
2026-04-20 13:30 35.95341 -22.67717 26967 ft 346 kts 112°
2026-04-20 13:30 35.94405 -22.64972 26968 ft 346 kts 112°
2026-04-20 13:30 35.93481 -22.62264 26972 ft 346 kts 112°
2026-04-20 13:31 35.92542 -22.59521 26963 ft 346 kts 113°
2026-04-20 13:31 35.91604 -22.56775 26956 ft 346 kts 113°
2026-04-20 13:31 35.90664 -22.54033 26961 ft 346 kts 113°
2026-04-20 13:31 35.89739 -22.51331 26956 ft 346 kts 113°
2026-04-20 13:32 35.88803 -22.48597 26962 ft 346 kts 113°
2026-04-20 13:32 35.87865 -22.45863 26954 ft 346 kts 113°
2026-04-20 13:32 35.86924 -22.43127 26949 ft 346 kts 113°
2026-04-20 13:32 35.85984 -22.40394 26953 ft 346 kts 113°
2026-04-20 13:33 35.85043 -22.37662 26948 ft 346 kts 113°
2026-04-20 13:33 35.84102 -22.34929 26942 ft 346 kts 113°
2026-04-20 13:33 35.83173 -22.32234 26947 ft 346 kts 113°
2026-04-20 13:33 35.82231 -22.29503 26937 ft 346 kts 113°
2026-04-20 13:34 35.81290 -22.26777 26943 ft 346 kts 113°
2026-04-20 13:34 35.80347 -22.24048 26934 ft 346 kts 113°
2026-04-20 13:34 35.79401 -22.21316 26935 ft 346 kts 113°
2026-04-20 13:34 35.78457 -22.18589 26931 ft 346 kts 113°
2026-04-20 13:35 35.77510 -22.15858 26928 ft 346 kts 113°
2026-04-20 13:35 35.76576 -22.13164 26926 ft 346 kts 113°
2026-04-20 13:35 35.75628 -22.10436 26928 ft 346 kts 113°
2026-04-20 13:35 35.74678 -22.07699 26921 ft 346 kts 113°
2026-04-20 13:36 35.73731 -22.04975 26925 ft 346 kts 113°
2026-04-20 13:36 35.72782 -22.02250 26916 ft 346 kts 113°
2026-04-20 13:36 35.71831 -21.99519 26925 ft 346 kts 113°
2026-04-20 13:36 35.70888 -21.96818 26913 ft 346 kts 114°
2026-04-20 13:37 35.69937 -21.94094 26907 ft 346 kts 114°
2026-04-20 13:37 35.68984 -21.91365 26926 ft 347 kts 113°
2026-04-20 13:37 35.68029 -21.88635 26910 ft 348 kts 114°
2026-04-20 13:37 35.67081 -21.85930 26899 ft 348 kts 114°
2026-04-20 13:38 35.66123 -21.83196 26899 ft 347 kts 114°
2026-04-20 13:38 35.65170 -21.80475 26900 ft 347 kts 114°
2026-04-20 13:38 35.64212 -21.77745 26898 ft 346 kts 114°
2026-04-20 13:38 35.63254 -21.75018 26894 ft 346 kts 114°
2026-04-20 13:39 35.62311 -21.72333 26902 ft 346 kts 114°
2026-04-20 13:39 35.61353 -21.69610 26887 ft 346 kts 114°
2026-04-20 13:39 35.60397 -21.66898 26894 ft 346 kts 114°
2026-04-20 13:39 35.59441 -21.64185 26882 ft 346 kts 114°
2026-04-20 13:40 35.58483 -21.61471 26882 ft 345 kts 114°
2026-04-20 13:40 35.57540 -21.58798 26880 ft 345 kts 114°
2026-04-20 13:40 35.56584 -21.56088 26881 ft 345 kts 114°
2026-04-20 13:40 35.55628 -21.53379 26873 ft 345 kts 114°
2026-04-20 13:41 35.54670 -21.50674 26881 ft 345 kts 114°
2026-04-20 13:41 35.53712 -21.47975 26872 ft 345 kts 114°
2026-04-20 13:41 35.52752 -21.45270 26870 ft 345 kts 114°
2026-04-20 13:41 35.51796 -21.42575 26865 ft 344 kts 114°
2026-04-20 13:42 35.50841 -21.39878 26866 ft 344 kts 114°
2026-04-20 13:42 35.48929 -21.34500 26860 ft 344 kts 114°
2026-04-20 13:42 35.47978 -21.31835 26859 ft 344 kts 114°
2026-04-20 13:43 35.47018 -21.29150 26859 ft 343 kts 114°
2026-04-20 13:43 35.46057 -21.26458 26857 ft 343 kts 114°
2026-04-20 13:43 35.45098 -21.23772 26854 ft 343 kts 114°
2026-04-20 13:43 35.44135 -21.21084 26855 ft 343 kts 114°
2026-04-20 13:44 35.43185 -21.18442 26850 ft 343 kts 114°
2026-04-20 13:44 35.42227 -21.15768 26850 ft 343 kts 114°
2026-04-20 13:44 35.41265 -21.13079 26854 ft 342 kts 114°
2026-04-20 13:44 35.40308 -21.10406 26847 ft 342 kts 114°
2026-04-20 13:45 35.39349 -21.07731 26842 ft 342 kts 114°
2026-04-20 13:45 35.38390 -21.05059 26838 ft 342 kts 114°
2026-04-20 13:45 35.37447 -21.02432 26853 ft 341 kts 114°
2026-04-20 13:45 35.36489 -20.99770 26840 ft 341 kts 114°
2026-04-20 13:46 35.35531 -20.97109 26837 ft 341 kts 114°
2026-04-20 13:46 35.34567 -20.94434 26835 ft 341 kts 114°
2026-04-20 13:46 35.33618 -20.91805 26830 ft 341 kts 114°
2026-04-20 13:46 35.32657 -20.89142 26830 ft 340 kts 114°
2026-04-20 13:47 35.31696 -20.86485 26828 ft 340 kts 114°
2026-04-20 13:47 35.30736 -20.83829 26826 ft 340 kts 114°
2026-04-20 13:47 35.29776 -20.81176 26825 ft 340 kts 114°
2026-04-20 13:47 35.28819 -20.78534 26825 ft 340 kts 114°
2026-04-20 13:48 35.27870 -20.75916 26825 ft 340 kts 114°
2026-04-20 13:48 35.26912 -20.73277 26824 ft 340 kts 114°
2026-04-20 13:48 35.25952 -20.70636 26819 ft 339 kts 114°
2026-04-20 13:48 35.24992 -20.67999 26819 ft 339 kts 114°
2026-04-20 13:49 35.24031 -20.65356 26813 ft 339 kts 114°
2026-04-20 13:49 35.23069 -20.62715 26813 ft 339 kts 114°
2026-04-20 13:49 35.22121 -20.60111 26810 ft 339 kts 114°
2026-04-20 13:49 35.21162 -20.57482 26807 ft 339 kts 114°
2026-04-20 13:50 35.20203 -20.54854 26807 ft 338 kts 114°
2026-04-20 13:50 35.19240 -20.52218 26805 ft 338 kts 114°
2026-04-20 13:50 35.18280 -20.49591 26804 ft 338 kts 114°
2026-04-20 13:50 35.17319 -20.46968 26802 ft 338 kts 114°
2026-04-20 13:51 35.16358 -20.44344 26811 ft 337 kts 114°
2026-04-20 13:51 35.15410 -20.41756 26795 ft 337 kts 114°
2026-04-20 13:51 35.14450 -20.39139 26794 ft 337 kts 115°
2026-04-20 13:51 35.13490 -20.36524 26793 ft 337 kts 115°
2026-04-20 13:52 35.12528 -20.33908 26787 ft 337 kts 115°
2026-04-20 13:52 35.11567 -20.31294 26786 ft 337 kts 115°
2026-04-20 13:52 35.10608 -20.28689 26784 ft 336 kts 115°
2026-04-20 13:52 35.09969 -20.26956 26783 ft 336 kts 115°
2026-04-20 13:53 35.08694 -20.23495 26782 ft 336 kts 115°
2026-04-20 13:53 35.07730 -20.20879 26790 ft 336 kts 115°
2026-04-20 13:53 35.06768 -20.18274 26782 ft 336 kts 115°
2026-04-20 13:53 35.05816 -20.15700 26781 ft 336 kts 115°
2026-04-20 13:54 35.04852 -20.13094 26776 ft 336 kts 115°
2026-04-20 13:54 35.03899 -20.10519 26780 ft 336 kts 115°
2026-04-20 13:54 35.02937 -20.07923 26772 ft 335 kts 115°
2026-04-20 13:54 35.02299 -20.06202 26774 ft 335 kts 115°
2026-04-20 13:55 35.01007 -20.02724 26771 ft 335 kts 116°
2026-04-20 13:55 34.99974 -20.00212 26767 ft 335 kts 120°
2026-04-20 13:55 34.98787 -19.97760 26763 ft 334 kts 124°
2026-04-20 13:55 34.97504 -19.95398 26762 ft 334 kts 125°
2026-04-20 13:56 34.96218 -19.93033 26760 ft 334 kts 125°
2026-04-20 13:56 34.94936 -19.90671 26756 ft 334 kts 125°
2026-04-20 13:56 34.93669 -19.88338 26753 ft 334 kts 125°
2026-04-20 13:56 34.92389 -19.85979 26766 ft 333 kts 125°
2026-04-20 13:57 34.91103 -19.83615 26757 ft 333 kts 125°
2026-04-20 13:57 34.89822 -19.81261 26753 ft 333 kts 125°
2026-04-20 13:57 34.88972 -19.79702 26758 ft 333 kts 125°
2026-04-20 13:57 34.87268 -19.76577 26749 ft 333 kts 125°
2026-04-20 13:58 34.85985 -19.74225 26751 ft 333 kts 125°
2026-04-20 13:58 34.84698 -19.71868 26747 ft 332 kts 125°
2026-04-20 13:58 34.83434 -19.69555 26742 ft 332 kts 125°
2026-04-20 13:58 34.82564 -19.67964 26743 ft 332 kts 125°
2026-04-20 13:59 34.80870 -19.64866 26744 ft 332 kts 125°
2026-04-20 13:59 34.79586 -19.62520 26750 ft 332 kts 125°
2026-04-20 13:59 34.78303 -19.60177 26744 ft 332 kts 125°
2026-04-20 13:59 34.77036 -19.57865 26750 ft 332 kts 125°
2026-04-20 14:00 34.75755 -19.55531 26743 ft 332 kts 126°
2026-04-20 14:00 34.74904 -19.53979 26742 ft 332 kts 126°
2026-04-20 14:00 34.73189 -19.50857 26741 ft 331 kts 126°
2026-04-20 14:00 34.72337 -19.49307 26735 ft 331 kts 126°
2026-04-20 14:01 34.70637 -19.46215 26736 ft 331 kts 126°
2026-04-20 14:01 34.69357 -19.43888 26733 ft 331 kts 126°
2026-04-20 14:01 34.68072 -19.41554 26732 ft 331 kts 126°
2026-04-20 14:01 34.66787 -19.39221 26731 ft 332 kts 126°
2026-04-20 14:02 34.65501 -19.36889 26734 ft 331 kts 126°
2026-04-20 14:02 34.64649 -19.35345 26736 ft 331 kts 126°
2026-04-20 14:02 34.63363 -19.33019 26732 ft 331 kts 126°
2026-04-20 14:02 34.61655 -19.29926 26727 ft 331 kts 126°
2026-04-20 14:03 34.60383 -19.27625 26733 ft 331 kts 126°
2026-04-20 14:03 34.59099 -19.25303 26726 ft 331 kts 126°
2026-04-20 14:03 34.57813 -19.22979 26735 ft 331 kts 126°
2026-04-20 14:03 34.56522 -19.20648 26731 ft 332 kts 126°
2026-04-20 14:04 34.55232 -19.18321 26739 ft 332 kts 126°
2026-04-20 14:04 34.54380 -19.16783 26728 ft 332 kts 126°
2026-04-20 14:04 34.53089 -19.14458 26728 ft 332 kts 126°
2026-04-20 14:04 34.51379 -19.11380 26723 ft 331 kts 126°
2026-04-20 14:05 34.50087 -19.09054 26723 ft 331 kts 126°
2026-04-20 14:05 34.49233 -19.07518 26722 ft 331 kts 126°
2026-04-20 14:05 34.47510 -19.04419 26727 ft 331 kts 126°
2026-04-20 14:05 34.46240 -19.02137 26719 ft 331 kts 126°
2026-04-20 14:06 34.44949 -18.99818 26719 ft 331 kts 126°
2026-04-20 14:06 34.43659 -18.97500 26718 ft 330 kts 126°
2026-04-20 14:06 34.42374 -18.95195 26715 ft 330 kts 126°
2026-04-20 14:06 34.41084 -18.92885 26717 ft 330 kts 126°
2026-04-20 14:07 34.39812 -18.90609 26717 ft 330 kts 126°
2026-04-20 14:07 34.38524 -18.88306 26716 ft 330 kts 126°
2026-04-20 14:07 34.37235 -18.86002 26729 ft 330 kts 126°
2026-04-20 14:07 34.35948 -18.83703 26713 ft 330 kts 127°
2026-04-20 14:08 34.34659 -18.81402 26713 ft 329 kts 127°
2026-04-20 14:08 34.33371 -18.79104 26713 ft 329 kts 127°
2026-04-20 14:08 34.32100 -18.76838 26719 ft 329 kts 127°
2026-04-20 14:08 34.30814 -18.74546 26719 ft 329 kts 127°
2026-04-20 14:09 34.29530 -18.72259 26712 ft 329 kts 127°
2026-04-20 14:09 34.28245 -18.69970 26712 ft 329 kts 127°
2026-04-20 14:09 34.26959 -18.67683 26713 ft 328 kts 127°
2026-04-20 14:09 34.25672 -18.65395 26715 ft 328 kts 127°
2026-04-20 14:10 34.24384 -18.63106 26723 ft 328 kts 127°
2026-04-20 14:10 34.23096 -18.60820 26724 ft 328 kts 127°
2026-04-20 14:10 34.21812 -18.58541 26714 ft 328 kts 127°
2026-04-20 14:10 34.20961 -18.57033 26720 ft 328 kts 127°
2026-04-20 14:11 34.19255 -18.54010 26712 ft 328 kts 127°
2026-04-20 14:11 34.17969 -18.51733 26713 ft 327 kts 127°
2026-04-20 14:11 34.16684 -18.49458 26713 ft 327 kts 127°
2026-04-20 14:11 34.15403 -18.47191 26712 ft 327 kts 127°
2026-04-20 14:12 34.14552 -18.45687 26719 ft 327 kts 127°
2026-04-20 14:12 34.12835 -18.42653 26722 ft 326 kts 127°
2026-04-20 14:12 34.11556 -18.40395 26715 ft 326 kts 127°
2026-04-20 14:12 34.10291 -18.38164 26718 ft 326 kts 128°
2026-04-20 14:13 34.09427 -18.36640 26716 ft 325 kts 128°
2026-04-20 14:13 34.08164 -18.34413 26714 ft 325 kts 128°
2026-04-20 14:13 34.06454 -18.31403 26713 ft 325 kts 128°
2026-04-20 14:13 34.05175 -18.29151 26712 ft 325 kts 128°
2026-04-20 14:14 34.03911 -18.26928 26712 ft 324 kts 128°
2026-04-20 14:14 34.02637 -18.24688 26713 ft 324 kts 128°
2026-04-20 14:14 34.01774 -18.23172 26712 ft 324 kts 128°
2026-04-20 14:14 34.00515 -18.20962 26713 ft 324 kts 128°
2026-04-20 14:15 33.99238 -18.18722 26713 ft 323 kts 128°
2026-04-20 14:15 33.97963 -18.16487 26714 ft 323 kts 128°
2026-04-20 14:15 33.96687 -18.14251 26713 ft 323 kts 128°
2026-04-20 14:15 33.95414 -18.12020 26716 ft 323 kts 128°
2026-04-20 14:16 33.94141 -18.09790 26714 ft 323 kts 128°
2026-04-20 14:16 33.92866 -18.07560 26715 ft 322 kts 128°
2026-04-20 14:16 33.91602 -18.05372 26716 ft 322 kts 129°
2026-04-20 14:16 33.90276 -18.03203 26717 ft 321 kts 130°
2026-04-20 14:17 33.88925 -18.01051 26717 ft 321 kts 131°
2026-04-20 14:17 33.87575 -17.98911 26719 ft 321 kts 131°
2026-04-20 14:17 33.86227 -17.96769 26717 ft 321 kts 131°
2026-04-20 14:17 33.84882 -17.94624 26716 ft 320 kts 131°
2026-04-20 14:18 33.83541 -17.92482 26715 ft 320 kts 131°
2026-04-20 14:18 33.82203 -17.90338 26716 ft 320 kts 131°
2026-04-20 14:18 33.80869 -17.88200 26715 ft 320 kts 131°
2026-04-20 14:18 33.79549 -17.86085 26716 ft 320 kts 131°
2026-04-20 14:19 33.78215 -17.83946 26715 ft 319 kts 131°
2026-04-20 14:19 33.77413 -17.82661 26716 ft 319 kts 131°
2026-04-20 14:19 33.76326 -17.80899 26715 ft 319 kts 130°
2026-04-20 14:19 33.75005 -17.78745 26718 ft 319 kts 131°
2026-04-20 14:20 33.73689 -17.76630 26714 ft 319 kts 131°
2026-04-20 14:20 33.72785 -17.75190 26715 ft 319 kts 131°
2026-04-20 14:20 33.71010 -17.72372 26717 ft 319 kts 131°
2026-04-20 14:20 33.70126 -17.70970 26715 ft 318 kts 131°
2026-04-20 14:21 33.68333 -17.68123 26716 ft 318 kts 131°
2026-04-20 14:21 33.66997 -17.65997 26717 ft 318 kts 131°
2026-04-20 14:21 33.65677 -17.63897 26717 ft 318 kts 131°
2026-04-20 14:21 33.64344 -17.61775 26717 ft 318 kts 131°
2026-04-20 14:22 33.63011 -17.59652 26720 ft 318 kts 131°
2026-04-20 14:22 33.61675 -17.57526 26718 ft 318 kts 131°
2026-04-20 14:22 33.60361 -17.55435 26718 ft 318 kts 131°
2026-04-20 14:22 33.59030 -17.53318 26719 ft 318 kts 131°
2026-04-20 14:23 33.57696 -17.51199 26721 ft 317 kts 131°
2026-04-20 14:23 33.56353 -17.49069 26461 ft 325 kts 131°
2026-04-20 14:23 33.54950 -17.46868 25988 ft 337 kts 131°
2026-04-20 14:23 33.53515 -17.44620 25540 ft 340 kts 131°
2026-04-20 14:24 33.52081 -17.42359 25097 ft 340 kts 131°
2026-04-20 14:24 33.50666 -17.40116 24671 ft 341 kts 131°
2026-04-20 14:24 33.49234 -17.37845 24243 ft 342 kts 131°
2026-04-20 14:24 33.47797 -17.35567 23819 ft 342 kts 131°
2026-04-20 14:25 33.46356 -17.33281 23405 ft 343 kts 131°
2026-04-20 14:25 33.44933 -17.31028 22939 ft 343 kts 131°
2026-04-20 14:25 33.43484 -17.28747 22451 ft 343 kts 131°
2026-04-20 14:25 33.42032 -17.26464 21973 ft 344 kts 131°
2026-04-20 14:26 33.40575 -17.24180 21497 ft 345 kts 131°
2026-04-20 14:26 33.39120 -17.21901 21036 ft 345 kts 131°
2026-04-20 14:26 33.37678 -17.19645 20579 ft 345 kts 131°
2026-04-20 14:26 33.36214 -17.17355 20137 ft 346 kts 131°
2026-04-20 14:27 33.34758 -17.15053 19693 ft 347 kts 131°
2026-04-20 14:27 33.33310 -17.12750 19250 ft 347 kts 131°
2026-04-20 14:27 33.31856 -17.10434 18819 ft 347 kts 131°
2026-04-20 14:27 33.30413 -17.08147 18403 ft 348 kts 131°
2026-04-20 14:28 33.28951 -17.05841 17980 ft 348 kts 132°
2026-04-20 14:28 33.27488 -17.03540 17501 ft 345 kts 132°
2026-04-20 14:28 33.26040 -17.01266 17024 ft 342 kts 132°
2026-04-20 14:28 33.24601 -16.99011 16569 ft 340 kts 132°
2026-04-20 14:29 33.23168 -16.96768 16104 ft 338 kts 132°
2026-04-20 14:29 33.21755 -16.94559 15656 ft 337 kts 131°
2026-04-20 14:29 33.20335 -16.92341 15213 ft 335 kts 132°
2026-04-20 14:29 33.18913 -16.90122 14776 ft 334 kts 131°
2026-04-20 14:30 33.17514 -16.87937 14340 ft 328 kts 131°
2026-04-20 14:30 33.16152 -16.85810 13921 ft 324 kts 131°
2026-04-20 14:30 33.15249 -16.84400 13639 ft 322 kts 131°
2026-04-20 14:30 33.13435 -16.81573 13019 ft 318 kts 131°
2026-04-20 14:31 33.12091 -16.79482 12551 ft 316 kts 132°
2026-04-20 14:31 33.10762 -16.77412 12094 ft 311 kts 132°
2026-04-20 14:31 33.09456 -16.75380 11639 ft 306 kts 132°
2026-04-20 14:31 33.08170 -16.73377 11194 ft 302 kts 132°
2026-04-20 14:32 33.06907 -16.71419 10758 ft 299 kts 132°
2026-04-20 14:32 33.05645 -16.69459 10317 ft 296 kts 132°
2026-04-20 14:32 33.04389 -16.67511 9891 ft 294 kts 132°
2026-04-20 14:32 33.03143 -16.65576 9449 ft 292 kts 132°
2026-04-20 14:33 33.01921 -16.63683 8990 ft 290 kts 132°
2026-04-20 14:33 33.00703 -16.61797 8528 ft 280 kts 133°
2026-04-20 14:33 32.99326 -16.60319 8080 ft 256 kts 158°
2026-04-20 14:33 32.97680 -16.59924 7639 ft 236 kts 186°
2026-04-20 14:34 32.96059 -16.59978 7186 ft 230 kts 180°
2026-04-20 14:34 32.94479 -16.59804 6748 ft 225 kts 178°
2026-04-20 14:34 32.92928 -16.59639 6322 ft 221 kts 179°
2026-04-20 14:34 32.91421 -16.59513 5888 ft 218 kts 180°
2026-04-20 14:35 32.90421 -16.59442 5584 ft 216 kts 180°
2026-04-20 14:35 32.88416 -16.59313 4990 ft 214 kts 180°
2026-04-20 14:35 32.86928 -16.59222 4549 ft 214 kts 180°
2026-04-20 14:35 32.85476 -16.59311 4106 ft 209 kts 198°
2026-04-20 14:36 32.84229 -16.60144 3658 ft 206 kts 221°
2026-04-20 14:36 32.83079 -16.61179 3206 ft 208 kts 216°
2026-04-20 14:36 32.81890 -16.62122 3037 ft 201 kts 216°
2026-04-20 14:36 32.81122 -16.62727 3022 ft 197 kts 216°
2026-04-20 14:37 32.79996 -16.63631 3004 ft 192 kts 217°
2026-04-20 14:37 32.78561 -16.64807 2990 ft 186 kts 217°
2026-04-20 14:37 32.77495 -16.65690 2997 ft 188 kts 217°
2026-04-20 14:37 32.76405 -16.66595 2846 ft 197 kts 217°
2026-04-20 14:38 32.75264 -16.67542 2665 ft 200 kts 218°
2026-04-20 14:38 32.74120 -16.68477 2519 ft 199 kts 218°
2026-04-20 14:38 32.73000 -16.69398 2269 ft 194 kts 218°
2026-04-20 14:38 32.71902 -16.70306 2017 ft 190 kts 218°
2026-04-20 14:39 32.70818 -16.71203 1738 ft 190 kts 219°
2026-04-20 14:39 32.70099 -16.71799 1528 ft 190 kts 218°
2026-04-20 14:39 32.69378 -16.72396 1312 ft 189 kts 218°
2026-04-20 14:39 32.67638 -16.73833 1021 ft 173 kts 217°
2026-04-20 14:40 32.66670 -16.74594 999 ft 158 kts 216°
2026-04-20 14:40 32.65782 -16.75240 971 ft 144 kts 215°
2026-04-20 14:40 32.64948 -16.75841 1003 ft 138 kts 216°
2026-04-20 14:40 32.64193 -16.76483 967 ft 132 kts 239°
2026-04-20 14:41 32.64232 -16.77485 998 ft 123 kts 292°
2026-04-20 14:41 32.64478 -16.78083 993 ft 116 kts 294°
2026-04-20 14:41 32.65098 -16.79106 927 ft 119 kts 310°
2026-04-20 14:41 32.65791 -16.79688 907 ft 126 kts 328°
2026-04-20 14:42 32.66337 -16.79954 878 ft 128 kts 341°
2026-04-20 14:42 32.67228 -16.80032 785 ft 132 kts
2026-04-20 14:42 32.68183 -16.79332 543 ft 113 kts 49°
2026-04-20 14:42 32.68704 -16.78716 288 ft 100 kts 45°
2026-04-20 14:43 32.69149 -16.78192 160 ft 77 kts 47°
2026-04-20 14:43 32.69368 -16.77934 168 ft 58 kts 44°
2026-04-20 14:43 32.69604 -16.77661 193 ft 39 kts 44°
2026-04-20 14:43 32.69813 -16.77417 195 ft 27 kts 44°
2026-04-20 14:44 32.69906 -16.77311 201 ft 16 kts 44°
2026-04-20 14:44 32.69965 -16.77236 195 ft 10 kts 65°
2026-04-20 14:44 32.69960 -16.77181 203 ft 11 kts 131°
2026-04-20 14:44 32.69841 -16.77175 179 ft 17 kts 216°
2026-04-20 14:45 32.69754 -16.77282 178 ft 18 kts 226°
2026-04-20 14:45 32.69657 -16.77402 176 ft 22 kts 227°
2026-04-20 14:45 32.69552 -16.77535 174 ft 23 kts 225°
2026-04-20 14:45 32.69439 -16.77674 171 ft 24 kts 226°
2026-04-20 14:46 32.69351 -16.77778 168 ft 12 kts 225°
2026-04-20 14:46 32.69318 -16.77819 167 ft 8 kts 225°
2026-04-20 14:46 32.69251 -16.77813 166 ft 8 kts 153°
2026-04-20 14:46 32.69223 -16.77819 166 ft 3 kts 326°
2026-04-20 14:47 32.69224 -16.77819 166 ft 0 kts 331°